Location: *
(43.9905°S, 176.4941°W)
Time: 20:47:54
(UTC+00:00)

Cosmos 2058 Rocket - Pass Details

Date: 08 December 2019
Orbit: 609 x 640 km, 82.5° (Epoch: 21 January)

Event Time Altitude Azimuth Distance (km) Brightness Sun altitude
Exits shadow 11:37:39 76° 308° (NW) 645 2.9 -23.3°
Maximum altitude 11:37:54 80° 262° (W) 636 3.0 -23.3°
Drops below altitude 10° 11:42:21 10° 174° (S) 2,003 6.8 -23.3°
Sets 11:44:36 0° 172° (S) 2,916 8.0 -23.3°
